Espace membre
Imprimable
Challenges > Delhalle - Habay, 16/06/2012, BEL - Les Forges de la forêt d'Anlier
Liste des rapports > Delhalle - Les Forges - 19km - Classement + Video
Recherche: Page: [1]
91 Entrées
 
La visualisation des vidéos de cet événément est réservée aux fans de notre page FaceBook! Cliquez sur le bouton 'J'aime' pour devenir fan!
Vous êtes fan de notre page FaceBook et nous vous en remercions. Les vidéos seront accessibles dans les 48h suivant l'événement!
Les réclamations ne sont plus acceptées, les résultats sont considérés comme définitifs.
RangNrNomAgeIOCLigueEquipeRéelTempsTkmMoy.ScrPtsLocalité
1.20FDELDICQUE Louise31BELCSDY1:16:341:16:344:02 14.8942994LOUVAIN LA NEUVE
2.1099FCHARLOT Christelle38BELSMAC1:21:361:21:404:18 13.9673920SAINT-SERVAIS
3.1858FDAGUENET Saskia32FRACSL1:22:041:22:084:20 13.8878912
4.1753FLOUPPE Stephanie33BELPMX1:24:111:24:144:26 13.54104878
5.114FMARIËN Jessica20BELUSBW1:27:031:27:114:36 13.08156829BRUXELLES
6.1064FBONAMI Deborah37BELRCB1:28:071:28:114:39 12.93167813BRUXELLES
7.1672FTANGHE Karol36BELDAPALO1:32:331:32:454:53 12.29251738MENEN
8.1895FROBERTI Daphne36BELRCNAMUR1:33:021:33:114:55 12.24254732
9.979FCOENEN Chantal38BELTT WOLVES1:34:341:34:475:00 12.03282707BEKKEVOORT
10.931FBASTIJNS Katrien32BELAVN1:34:251:34:525:00 12.02285708MEER
11.907FTHIRY Marie30BELRCNAMUR1:35:091:35:285:02 11.94311692NANINNE
12.1195FDI MÉO Maria-Rita36BELRACING CLUB BRUXELLE1:35:261:35:385:02 11.92317688
13.1098FCHARLIER Laëtitia33BELTRAIL ATTITUDE FAMENNOISE1:37:181:37:275:08 11.70359656MARCHE-EN-FAMENNE
14.1781FGENON Ludivine29BEL1:38:101:38:525:13 11.53393636
15.1972FGUTJAHR Susanne38DEU1:40:411:41:275:21 11.24449595GONDERANGE
16.1113FCOLARELLI Maïlys28FRA1:41:391:42:175:23 11.15470578THIONVILLE
17.1431FLENTINI Alida38BEL1:43:131:43:505:28 10.98513551WARNACH
18.1016FARNOULD Cynthia35BEL1:43:491:44:095:29 10.95522542ROSSIGNOL
19.1705FVANEETVELDE Linda39BEL1:43:571:44:125:30 10.94525539STE MARIE/S/SEMOIS
20.1711FVERPOORTEN Leïla35BEL1:43:081:44:245:30 10.92530546LISOGNE
21.1449FLIMPACH Jessica24BELBABA1:45:201:45:435:34 10.78560516ARLON
22.644FDUJACQUIER Magali37BELESMESM1:45:591:46:035:35 10.75564508MONT SUR MARCHIENNE
23.1011FANNET Fabienne39BELJOG'IN BASTOGNE1:46:231:47:175:39 10.63588498BASTOGNE
24.1453FLOWENTHAL Maiena38BEL1:46:251:47:175:39 10.63589497HAGEN
25.1521FMUSIALOWSKA Ewa32POLCEPAL1:47:581:48:175:42 10.53608476BRUXELLES
26.1954FLIENHART Stephanie38FRA1:47:341:48:295:43 10.51616478
27.847FARNOULD Sylvie36BELRCNAMUR1:47:221:48:345:43 10.50619479EVREHAILLES
28.1958FDINON Natacha39BEL1:47:481:48:355:43 10.50620475
29.953FWANSARD Marie29BELRCBG1:48:041:48:545:44 10.47627470HAUT-FAYS
30.1708FVERGNET Helene28FRARACING CLUB BRUXELLE1:48:281:49:205:46 10.43635464
31.1831FTILLMANN Karin37BEL1:49:271:49:535:47 10.38648451
32.1368FKERGER Valerie37BEL1:49:101:50:105:48 10.35660450BASCHARAGE
33.1086FCAISE Eva39BEL1:50:101:50:495:50 10.29678435FAUVILLERS
34.1175FDENIS Isabelle37BELJCPMF MUSSON1:50:421:51:525:54 10.19713420MEIX-LE-TIGE
35.1552FPAQUET Stéphanie39BEL1:51:341:52:135:55 10.16720411LES FOSSÉS
36.1019FAUQUIER Gaelle36BEL1:51:551:52:595:57 10.09737402ARLON
37.191FVANDERAST Caroline36BELUSBW1:52:021:53:055:58 10.08740400WATERLOO
38.1975FPROTIN Carole37BEL1:53:201:54:096:01 9.99766381
39.1692FVALET Sabrina34BEL1:54:441:55:156:04 9.89799359HABAY
40.1837FSCHMIT Sonja31BEL1:56:031:57:286:11 9.71832338BERTRIX
41.1782FVAGUET Mélissa25BEL1:57:321:58:026:13 9.66843321BASTOGNE
42.1489FMERNIER Laurence38BEL1:57:311:58:386:15 9.61855318VIRTON
43.1160FDEHALU Julie36BELRCH1:58:451:59:306:18 9.54868304LOUFTÉMONT
44.1328FHORMAN Valerie39BEL1:59:011:59:396:18 9.53872300HOTTE
45.1922FARNOULD 37BEL1:59:282:00:216:21 9.47882293
46.1441FLEROY Laurence39BEL2:00:072:00:386:21 9.45887286HAMOIR
47.1083FBURGARD Christine33FRA2:00:272:00:596:23 9.42896281AUDUN LE TICHE
48.1424FLEHUT Amandine27FRA2:00:512:01:376:25 9.37900276MONDELANGE
49.1968FQUERTINIER Anne-Laure36BEL2:00:262:01:586:26 9.35907278NAMUR
50.1768FDEPIENNE Isabelle37BEL2:01:002:02:116:26 9.33913271
51.1183FDESCHAMPS Bénédicte37BELMELLIER2:01:232:02:296:27 9.31918266MELLIER
52.1704FVANDEWEYER Ludivine34BELSERUNNER2:02:132:02:436:28 9.29921258FLÉMALLE
53.1643FSCHRONDWEILER Virginie34BEL2:01:552:02:516:28 9.28926259
54.1627FSCHELFAUT Sylvie33BEL2:02:292:03:306:30 9.23933252
55.1187FDETERME Mireille37BELJCPMF2:02:242:03:356:31 9.23939252HALANZY
56.1846FCOLLES Laurie27BEL2:02:312:03:406:31 9.22943249
57.1691FVALENTIN Stéphanie37BELTRÉVIRE TRAIL CLUB2:03:102:04:016:32 9.19949242GEMBES
58.1686FTIMMERMANS Vanessa26BEL2:02:552:04:126:33 9.18953243NOTHOMB
59.1297FHAAGER Ingrid38BEL2:03:532:04:136:33 9.18956234LEGLISE
60.1579FPINOT Mathilde25FRAE S HAGONDANGE2:03:302:04:156:33 9.18959237AMNEVILLE
61.1284FGRANDJEAN Vanessa32BELRTH2:03:342:04:176:33 9.17961235HEINSCH
62.1589FPONSARD Cristelle38BEL2:03:432:04:386:34 9.15966233HACHY
63.1542FOGER Stéphanie36BEL2:04:062:05:136:36 9.10975227LOUFTÉMONT
64.1939FTHIRY Fabienne39BEL2:04:392:05:516:38 9.06986219BARCHON
65.1392FLALOY Séverine39BELRTH2:05:132:05:576:38 9.05987214HOUDEMONT
66.1351FJACQUES Nathalie39BEL2:04:372:06:096:39 9.04992218HABAY LA NEUVE
67.1826FFORNASARI Marie34BEL2:05:342:06:576:41 8.981010205VILLANCE
68.1969FBOON Valerie36BEL2:07:072:08:056:45 8.901021189
69.1684FTIBESAR Caroline34BEL2:07:062:08:056:45 8.901022189HABERGY
70.207FROOZE Shancy31BELARCHJOGGANS2:07:272:08:146:45 8.891023185BRUXELLES
71.1871FVERSCHEURE Severine31BELRCNAMUR2:07:272:08:386:47 8.861025185NAMUR
72.1730FWOILLARD Valérie38BEL2:09:042:10:316:53 8.731043167WILLANCOURT
73.252FGEORGE Nathalie33BELSMAC2:10:342:11:326:56 8.671049153BELGRADE
74.1169FDEMARET Valerie39BEL2:12:162:13:467:03 8.521064136HABAY-LA-VIEILLE
75.1451FLONGREE Axelle38BEL2:12:442:13:477:03 8.521065132HABAY LA VIEILLE
76.1609FROB Caroline34BEL2:13:502:14:127:04 8.501069122THIBESSART
77.1015FARNOULD Amandine35BEL2:12:542:14:147:04 8.491070129
78.1230FFERNÉMONT Virginie32BEL2:13:022:14:207:05 8.491071128
79.1727FWILLAERT Anne-Gaëlle32BEL2:13:062:14:267:05 8.481072127
80.1580FPIRLOT Sylvie34BEL2:13:422:14:417:06 8.471079120ROSSIGNOL
81.1514FMOUFFE Dorothée36BELSPTW2:14:482:15:277:08 8.421086110LIMELETTE
82.1619FROUSSELLE Julie34BEL2:14:542:15:287:08 8.421087108REHON
83.1403FLAURENT Véronique39BELJCPMF LEGLISE2:19:012:20:257:24 8.12110572LEGLISE
84.1749FGEGOUT Sabine39FRA2:21:222:22:167:30 8.01111353
85.1065FBONMARIAGE Annick36BEL2:21:252:22:237:30 8.01111452HERSTAL
86.1250FGABRIELLI Audrey35FRA2:24:482:25:227:40 7.84112524HUSSIGNY-GODBRANGE
87.1117FCOLIN Angélique37BELPRFM2:25:062:26:237:43 7.79112722PÉRUWELZ
88.1759FRALUSIAN Monica37FRA2:25:412:26:257:43 7.79112917
89.1569FPICRON Mélanie30BELPRFM2:28:022:29:197:52 7.6311385PÉRUWELZ
90.1645FSERVAIS Laurence37BEL2:39:172:40:228:27 7.1111511SAINTE-MARIE S/SEMOIS
91.1745FRICOU Pascaline38FRACLUB DES TAUPETTES2:54:572:55:439:15 6.4911561
DNF: abandon; DSQ: disqualifié; Vitesse en km/h
Page: [1]